RH
25 26 28 26 20 19 21 20 20 19 20 21 22 23 18 19 15 15 15 15 15 14 16 13 17 14 14 15 14 14 15 13 13
29 29 22 23 22 21 20 21 21 22 23 24 25 21 23 21 19 18 17 18 18 18 18 16 22 20 19 20 19 18 16 16 18
26 21 20 24 24 19 20 21 22 24 23 25 26 26 25 24 22 21 23 24 25 24 22 22 23 30 31 33 29 28 20 19 19
21 22 22 22 18 19 21 22 25 26 26 30 29 29 27 25 24 31 30 31 31 31 31 38 37 44 44 45 43 39 32 26 27
24 22 17 16 19 20 22 26 27 26 32 33 31 29 28 32 36 37 40 40 44 46 54 52 55 53 50 45 48 52 42 36 31
21 16 16 18 20 24 25 25 28 30 30 30 34 32 37 50 50 50 42 43 50 60 68 56 57 67 68 53 61 65 67 64 54
18 20 23 24 26 26 24 26 28 34 36 36 37 39 41 48 62 62 47 53 52 67 77 69 77 69 80 74 61 46 65 62 65
27 29 29 29 30 25 29 36 40 43 51 54 45 43 49 56 90 76 76 68 67 69 100 100 96 72 93 84 94 75 68 54 80
33 31 32 32 36 41 46 61 66 57 64 70 66 69 62 56 74 79 86 84 86 90 100 100 100 88 95 95 91 89 82 95 84
39 42 49 59 59 59 65 75 81 67 68 70 67 56 65 65 91 99 100 92 98 100 100 100 100 100 92 98 100 95 97 90 100
47 50 55 56 60 49 62 91 83 70 56 62 68 84 70 68 77 100 80 88 100 100 100 100 100 97 95 100 96 96 100 97 96
61 66 78 90 94 91 96 100 100 100 99 99 100 100 100 74 93 59 69 98 100 100 100 100 100 100 100 100 97 100 100 78 82
62 64 68 82 94 96 92 96 89 96 98 98 99 98 87 77 64 71 72 76 87 100 100 100 100 100 100 100 94 99 95 81 92
62 65 72 90 100 100 100 95 100 100 100 79 70 81 71 85 88 95 97 92 99 100 100 100 100 100 100 100 100 99 91 95 100
74 82 90 87 66 61 65 68 87 70 59 82 90 93 100 100 100 100 100 100 100 100 100 100 100 100 100 100 100 100 99 89 92
72 77 79 82 74 66 64 74 65 64 67 69 72 95 100 100 100 100 100 100 100 100 100 100 100 100 100 100 100 100 97 93 100
48 51 57 55 56 62 63 60 63 61 65 70 81 83 80 83 98 100 100 100 100 100 100 100 100 100 100 100 100 100 100 100 100
81 77 80 84 80 69 67 62 60 64 70 74 60 44 49 58 58 61 60 65 84 100 100 100 100 100 100 100 100 100 100 100 100
87 96 81 54 44 52 52 59 65 63 46 42 36 39 41 35 42 50 51 57 68 72 92 100 100 100 100 100 100 100 100 100 100
48 51 49 54 58 56 62 72 57 58 56 54 51 61 68 75 64 71 76 75 71 79 91 100 100 100 100 100 100 100 100 100 100
Wind_Speed
39 38 40 42 39 37 33 29 29 32 35 40 39 40 42 45 46 49 53 54 56 60 61 66 63 60 55 60 51 46 42 36 36
39 40 36 32 36 31 26 27 30 34 38 38 39 40 45 46 48 52 54 57 59 64 65 65 64 64 62 64 64 63 51 44 42
38 35 32 32 31 25 24 28 32 36 37 38 41 43 46 48 49 53 54 57 59 62 65 64 65 62 64 65 66 67 65 58 57
33 31 31 28 23 24 25 30 34 36 39 42 44 47 48 48 51 52 55 57 59 62 63 64 67 64 64 64 66 67 67 65 64
30 29 25 22 23 24 27 31 34 36 40 44 46 47 47 49 52 52 55 56 58 60 61 65 64 66 65 67 68 68 68 66 65
26 22 24 25 24 26 30 31 35 38 42 45 46 46 49 51 52 53 56 57 58 61 59 64 66 65 66 67 67 68 69 68 66
20 21 22 26 27 29 31 34 37 42 45 47 48 48 52 53 54 56 58 58 60 61 60 62 64 67 66 65 67 73 72 72 68
18 23 26 27 28 31 34 37 40 47 48 49 50 51 53 55 58 56 57 60 62 63 64 62 63 67 64 63 65 70 73 76 71
22 25 27 28 32 34 38 42 44 49 50 49 51 52 54 54 56 59 59 61 63 65 66 63 64 67 68 67 69 69 72 73 74
26 29 31 34 37 40 43 44 46 48 51 52 53 51 53 54 57 62 59 61 65 66 66 69 66 67 69 72 72 71 71 74 72
32 34 35 37 37 41 45 46 48 52 55 57 58 54 56 56 57 61 64 65 67 70 69 69 70 72 74 72 74 76 75 73 72
36 37 40 44 46 46 49 50 53 56 59 63 62 61 61 61 62 64 67 69 70 72 72 71 74 74 74 73 73 73 75 77 73
40 42 45 49 51 51 52 53 55 58 59 62 63 64 65 66 67 68 71 71 71 75 73 75 77 77 78 76 76 75 76 79 75
46 49 51 55 56 55 54 55 59 63 61 63 65 67 73 73 71 75 73 74 74 76 76 79 78 79 83 78 77 79 81 80 78
50 50 52 47 52 54 54 58 60 63 68 69 71 74 77 76 78 81 80 81 81 80 81 80 81 79 81 76 80 82 83 79 76
49 53 53 54 58 59 61 64 68 70 73 76 79 82 83 83 84 85 84 84 83 81 81 81 79 83 86 84 82 84 84 83 75
52 55 58 59 61 61 65 70 68 78 78 80 79 81 83 86 90 93 92 93 93 89 86 84 81 79 77 80 85 85 82 82 77
59 62 65 65 67 69 72 75 79 81 81 79 84 82 82 85 89 89 90 89 90 92 90 84 80 76 78 82 85 84 79 82 80
64 66 69 71 75 80 79 81 84 81 81 81 80 81 81 80 81 88 91 92 90 89 89 88 84 79 80 81 84 81 83 83 91
68 71 74 78 81 84 84 82 81 81 82 80 80 81 85 85 87 85 91 92 95 94 84 83 83 86 88 85 80 79 81 86 80
Wind_Direction
296 297 297 296 299 303 304 309 314 317 319 317 317 319 319 320 321 326 328 331 332 333 341 343 352 355 2 5 1 354 358 339 339
295 293 292 294 297 301 305 313 316 316 317 317 318 321 322 322 326 329 331 333 336 335 342 345 350 354 353 354 355 355 354 349 349
290 287 288 287 294 298 309 315 315 317 318 318 318 320 322 324 328 330 333 335 338 337 339 346 347 348 347 349 350 353 353 349 349
287 288 286 287 295 305 313 315 317 316 318 319 318 320 324 326 328 333 334 334 335 337 340 344 344 345 346 345 347 349 351 349 347
283 286 286 289 298 307 311 314 314 316 319 318 319 321 323 326 328 331 333 334 332 336 339 340 340 342 342 342 343 347 346 348 347
283 285 294 301 307 312 313 312 316 320 321 323 322 322 324 326 327 328 331 331 331 332 334 336 338 339 338 342 343 342 343 344 343
289 299 306 308 308 311 311 314 316 320 322 327 325 323 324 324 324 324 328 328 330 330 329 332 335 335 336 338 341 342 342 340 337
296 303 308 305 304 307 311 315 318 323 324 324 324 323 324 323 322 322 323 326 326 327 326 326 331 333 334 335 335 336 338 339 335
300 303 305 304 305 307 311 316 318 322 320 319 319 318 320 319 319 317 320 323 323 325 326 327 327 330 330 332 332 331 333 331 332
299 304 308 310 311 311 308 311 312 316 315 314 313 313 312 314 314 312 316 319 319 321 323 326 325 326 326 326 329 328 328 328 325
306 310 311 308 306 309 308 311 310 314 315 313 311 308 313 313 310 312 314 315 316 317 318 320 321 321 322 323 324 325 325 327 322
307 309 308 307 307 307 308 309 309 308 308 307 305 307 309 310 310 310 312 312 313 313 313 315 316 318 319 320 321 323 325 324 324
297 300 303 304 303 301 301 302 301 300 302 306 304 306 308 306 306 309 313 312 313 312 313 312 313 314 316 316 317 319 322 323 321
290 297 301 301 299 300 301 300 298 298 300 305 305 303 307 306 305 308 309 310 308 308 310 311 310 311 313 312 315 317 320 321 318
290 291 295 299 298 297 298 302 302 301 300 302 301 302 301 302 303 304 306 307 307 307 307 306 306 308 309 309 311 314 317 316 318
293 294 296 297 299 297 296 300 301 301 301 302 301 301 300 302 302 303 304 304 305 305 304 305 304 306 308 307 308 310 314 313 315
296 298 299 298 300 297 297 297 302 303 303 304 306 301 301 301 302 302 302 303 302 300 300 300 301 303 302 304 306 309 311 310 311
298 299 299 301 301 301 300 300 305 305 304 305 307 305 302 303 303 302 302 302 301 299 297 297 298 298 299 302 304 307 306 307 308
293 294 297 299 300 299 299 301 304 305 302 302 306 309 307 307 306 307 307 307 304 301 298 296 295 295 296 299 301 303 302 302 306
298 296 296 297 298 300 302 303 305 307 309 309 308 307 306 306 308 306 307 308 307 302 299 293 291 291 294 296 298 298 300 302 306